Current Weather Conditions: station 63103

sailwx.info

Wind from 240 at 22 knots

Wave height 3.2 meters (10 feet), 7 second period

Air temperature 3.6° C
Dewpoint 0.5° C

Last reported at 2015-Mar-03 10:00 UTC.
Time now 2015-Mar-04 00:16 UTC

Location: N 61°12' E 001°06'.
View on Google Maps.

See reports from other nearby stations

  
Tides and Currents Weather Stations Pressure Air Temp Water Temp Dewpoint Dewpoint Depression Visibility Wind Speed Wind Dir Waves Ship Positions
date/time (UTC)wind fromknots sea level pressurealtimeterstation pressurevisibilityair tempwater tempwave heightnotes
2015-Mar-03 10:00 240 22 3.6 3.2
2015-Mar-03 09:00 230 13 3.9 3.3
2015-Mar-03 08:00 240 14 3.5 3.2
2015-Mar-03 07:00 220 7 2.8 3.0
2015-Mar-03 06:00 270 14 2.6 3.1
2015-Mar-03 05:00 250 17 4.1 3.2
2015-Mar-03 04:00 250 19 3.0 3.2
2015-Mar-03 03:00 250 11 4.6 3.1
2015-Mar-03 02:00 230 14 4.5 3.2
2015-Mar-03 01:00 240 16 4.6 3.5
2015-Mar-03 00:00 250 17 4.8 3.1
2015-Mar-02 23:00 250 16 4.6 3.2
2015-Mar-02 22:00 260 18 4.6 3.1
2015-Mar-02 21:00 230 15 5.5 2.9
2015-Mar-02 20:00 240 16 5.6 2.7
2015-Mar-02 19:00 250 14 5.1 2.7
2015-Mar-02 18:00 260 16 5.2 3.0
2015-Mar-02 17:00 190 9 4.4 2.7
2015-Mar-02 16:00 260 4 4.3 2.8
2015-Mar-02 15:00 210 8 3.2 2.8
2015-Mar-02 14:00 260 15 4.1 2.9
2015-Mar-02 13:00 210 10 5.5 2.8
2015-Mar-02 12:00 220 9 5.1 2.8
2015-Mar-02 11:00 240 8 4.9 3.0
2015-Mar-02 10:00 280 6 4.7 3.0
2015-Mar-02 09:00 280 9 4.4 3.0
2015-Mar-02 08:00 290 8 4.1 3.3
2015-Mar-02 07:00 290 11 4.2 3.4
2015-Mar-02 06:00 300 11 3.9 3.1
2015-Mar-02 05:00 300 10 3.9 3.2
2015-Mar-02 04:00 310 15 3.7 3.2
2015-Mar-02 03:00 310 18 3.8 3.2
2015-Mar-02 02:00 330 16 4.8 3.3
2015-Mar-02 01:00 340 16 4.5 3.4
2015-Mar-02 00:00 330 9 5.9 3.7